Hourly Weather Roundup
Issued by NWS Central Illinois

Home | Current Version | Previous Version | Text Only | Print | Product List | Glossary On
Versions: 1 2 3 4 5 6 7 8 9 10 11 12 13 14 15 16 17 18 19 20 21 22 23 24 25 26 27 28 29 30 31 32 33 34 35 36 37 38 39 40 41 42 43 44 45 46 47 48 49 50
633
NZUS43 KILX 110610
HWRILX

AREA WEATHER ROUNDUP
NATIONAL WEATHER SERVICE, LINCOLN IL
1200 AM CST THU FEB 11 2016


CITY           SKY/WX    TMP DP  RH WIND       PRES   REMARKS
BLOOMINGTON    PTCLDY    14   5  67 N8        30.17S WCI   3
6HR MIN TEMP:  14; 6HR MAX TEMP:  19;

CHAMPAIGN      CLOUDY    15   9  76 NW6       30.16S WCI   6
6HR MIN TEMP:  11; 6HR MAX TEMP:  19;

DANVILLE       MOCLDY    12   6  76 W5        30.13S WCI   4
6HR MIN TEMP:  11; 6HR MAX TEMP:  16;

DECATUR        CLOUDY    19  10  68 N8        30.17R WCI   9
6HR MIN TEMP:  19; 6HR MAX TEMP:  20;

EFFINGHAM      CLOUDY    21  18  86 CALM      30.19S
FLORA          CLOUDY    22  18  86 CALM      30.19S
6HR MIN TEMP:  21; 6HR MAX TEMP:  22;

GALESBURG      CLOUDY    15   7  69 N9        30.18S WCI   3
JACKSONVILLE   CLOUDY    22  17  82 CALM      30.17S
6HR MIN TEMP:  21; 6HR MAX TEMP:  22;

LACON          CLOUDY    14   5  68 CALM      30.20R
6HR MIN TEMP:  13; 6HR MAX TEMP:  18;

LAWRENCEVILLE  CLOUDY    20  16  84 NW5       30.19F WCI  13
6HR MIN TEMP:  17; 6HR MAX TEMP:  22;

LITCHFIELD     CLOUDY    19  16  86 CALM      30.17R
$$


CITY           SKY/WX    TMP DP  RH WIND       PRES   REMARKS
LINCOLN        CLOUDY    18  10  72 CALM      30.18S
6HR MIN TEMP:  18; 6HR MAX TEMP:  20;

MACOMB         CLOUDY    19  14  79 N6        30.21R WCI  11
MATTOON        CLOUDY    18  14  84 NW6       30.16S WCI  10
6HR MIN TEMP:  15; 6HR MAX TEMP:  19;

MT CARMEL AP   FLURRIES  23  18  80 CALM      30.19S
OLNEY-NOBLE AP CLOUDY    21  18  86 CALM      30.19F
PARIS          CLOUDY    12   9  87 CALM      30.17F
6HR MIN TEMP:  12; 6HR MAX TEMP:  19;

PEORIA         CLOUDY    16   5  62 N8        30.19S WCI   5
6HR MIN TEMP:  14; 6HR MAX TEMP:  19;

PONTIAC        CLOUDY    15   7  71 N7        30.18S WCI   5
RANTOUL        PTCLDY    15   8  73 W3        30.16S
6HR MIN TEMP:  15; 6HR MAX TEMP:  21;

ROBINSON       CLOUDY    19  14  82 NW3       30.20S
6HR MIN TEMP:  13; 6HR MAX TEMP:  21;

SPRINGFIELD    CLOUDY    21  15  78 N6        30.18S WCI  13
6HR MIN TEMP:  20; 6HR MAX TEMP:  21;

TAYLORVILLE    CLOUDY    21  16  79 N8        30.17F WCI  12
$$

...REGIONAL REPORTS...


CITY           SKY/WX    TMP DP  RH WIND       PRES   REMARKS
CHICAGO O`HARE CLOUDY    11   1  64 NW8       30.16F WCI  -1
KANKAKEE       MOCLDY    14   3  63 N7        30.17S WCI   3
MOLINE         PTCLDY    13   2  61 CALM      30.21R
MOUNT STERLING CLOUDY    18  14  84 N3        30.16S
MOUNT VERNON   CLOUDY    21  14  73 CALM      30.18S
PITTSFIELD     CLOUDY    20  18  91 CALM      30.18S
QUINCY         CLOUDY    19  14  81 NE5       30.18R WCI  12
ROCKFORD       CLOUDY    11   1  64 N7        30.20S WCI   0
$$


CITY           SKY/WX    TMP DP  RH WIND       PRES   REMARKS
BURLINGTON     CLOUDY    19  11  70 N7        30.19R WCI  10
CEDAR RAPIDS   CLEAR     10   2  69 N7        30.20R WCI  -1
DES MOINES     MOCLDY    16   8  71 NE8       30.23R WCI   5
KIRKSVILLE     CLOUDY    20  16  84 E7        30.15S WCI  11
OTTUMWA        CLOUDY    17  11  77 N7        30.20R WCI   8
ST LOUIS       CLOUDY    24  19  81 NE7       30.16S WCI  16
$$


CITY           SKY/WX    TMP DP  RH WIND       PRES   REMARKS
TERRE HAUTE    PTCLDY    14   7  73 CALM      30.17F
EVANSVILLE     CLOUDY    24  16  71 W3        30.20F
INDIANAPOLIS   PTCLDY    11   4  73 W5        30.13F WCI   3
LAFAYETTE      CLOUDY     7   4  87 CALM      30.15F
MADISON        CLEAR      7  -3  64 NW7       30.18R WCI  -5
MILWAUKEE      MOCLDY     9  -2  61 NW10      30.17R WCI  -5
$$






USA.gov is the U.S. government's official web portal to all federal, state and local government web resources and services.